DELTA 1 DEB

Satellite information

Favourite Embed

Satellite Type and Status

DEBRISIN ORBIT

Key statistics

Satellite DELTA 1 DEB at a glance.

Uptime

17685

Days in orbit

Revolutions

≈ 13.2

Per day

Orbit

LEO

Low Earth Orbit

Inclination

29.4

Latest

Satellite identification and parameters

Extended collection of information and parameters for DELTA 1 DEB.

Object identification

Identified? True

Debris? True

Object name: DELTA 1 DEB

International designator: 1977-065BR

Object number (NORAD): 10240

Object ID (CCSDS): 10240

Country: UNITED STATES OF AMERICA (US)

Current information (Y/N): Y

RCS size: SMALL

Orbital parameters

Period: 108.886 minutes

Inclination: 29.3882 deg

SMA: 7553.371 km

Apoapsis: 1681.129 km

Periapsis: 669.342 km

RAAN: 95.4124 deg

Eccentricy: 0.06697588

Argument of periapsis: 348.1684 deg

Mean anomaly: 10.3818 deg

Mean motion: 13.22487455 rev/day

Mean motion (dot): 0.00002062 rev/day2

B* drag term: 0.0014202946 1/REarth

Two-line elements (TLE)

Creation date: Dec. 14, 2025, 3:07 a.m.

Reference frame: TEME

Reference center: EARTH

Epoch: Dec. 13, 2025, 3:05 p.m. UTC

TLE line 0: 0 DELTA 1 DEB

TLE line 1: 1 10240U 77065BR 25347.62875081 .00002062 00000-0 14203-2 0 9992

TLE line 2: 2 10240 29.3882 95.4124 0669759 348.1684 10.3818 13.22487455 29870

Live tracking on map

Real-time ground track for satellite DELTA 1 DEB.

In-orbit conjunctions

A list of the most updated potential collisions computed for object DELTA 1 DEB.

Target Orbit TCA Probability of collision Miss distance Type
CZ-6A DEB LEO 2025-01-06 06:14:49 0.0001187114 612.0 (m) DEBRIS
SL-16 DEB LEO 2024-09-25 23:37:44 0.0005100823 661.0 (m) DEBRIS

Associated space launch

Japanese meteorological satellite built by Hughes Space and Communications Company

DELTA 1 DEB was lifted into orbit during the mission ‘Delta 2914 | Himawari’, on board a Delta 2914 space rocket.

The launch took place on July 14, 1977, 10:39 a.m. from Space Launch Complex 17B.

For more information about the launch, click the button.

Launch to space Delta 2914 | Himawari
Delta 2914 | Himawari

Agency: N/A

Status: Launch Successful

Launch date: July 14, 1977, 10:39 a.m. UTC

Rocket: Delta 2914

Launch pad: Space Launch Complex 17B

Location: Cape Canaveral SFS, FL, USA

...

Latest news about this satellite

There are no fresh news available about this satellite. Check back as we update our databases every day.


Newsletter sign-up

Weekly statistics, charts and insights to help you stay on top of the space industry.